Regional Weather Roundup
Issued by NWS

Home | Current Version | Previous Version | Text Only | Print | Product List | Glossary On
Versions: 1 2 3 4 5 6 7 8 9 10 11 12 13 14 15 16 17 18 19 20 21 22 23 24 25 26 27 28 29 30 31 32 33 34 35 36 37 38 39 40 41 42 43 44 45 46 47 48 49 50
000
ASUS43 KBIS 231710
RWRND

NORTH DAKOTA REGIONAL WEATHER ROUNDUP
NATIONAL WEATHER SERVICE BISMARCK ND
1200 PM CDT TUE SEP 23 2014

NOTE: "FAIR" INDICATES FEW OR NO CLOUDS BELOW 12,000 FEET WITH NO
SIGNIFICANT WEATHER AND/OR OBSTRUCTIONS TO VISIBILITY.


NDZ001>003-009>011-017-231800-
NORTHWEST NORTH DAKOTA

CITY           SKY/WX    TMP DP  RH WIND       PRES   REMARKS
WILLISTON      SUNNY     68  53  58 S5        29.86F
MINOT          SUNNY     71  56  58 S15       29.87F
MINOT AFB      SUNNY     70  58  66 S14       29.87F
$$

NDZ018>021-031>035-040>046-231800-
SOUTHWEST NORTH DAKOTA

CITY           SKY/WX    TMP DP  RH WIND       PRES   REMARKS
BISMARCK       MOSUNNY   69  57  65 S13       29.93F
DICKINSON      SUNNY     71  58  63 S12       29.87F
GARRISON         N/A     69  58  67 S14G22    29.89F
HETTINGER ARPT MOSUNNY   70  57  63 S9        29.91F
$$

NDZ004>008-012>016-024-026-027-054-231800-
NORTHEAST NORTH DAKOTA

CITY           SKY/WX    TMP DP  RH WIND       PRES   REMARKS
GRAND FORKS    MOSUNNY   70  55  59 S20G25    30.01F
GRND FRKS AFB  SUNNY     70  56  60 S15       30.02S
DEVILS LAKE    SUNNY     72  54  53 S20G25    29.96R
$$

NDZ022-023-025-028>030-036>039-047>053-231800-
SOUTHEAST NORTH DAKOTA

CITY           SKY/WX    TMP DP  RH WIND       PRES   REMARKS
FARGO          SUNNY     71  54  54 S13       30.04F
JAMESTOWN      MOSUNNY   68  58  70 S18       30.00S
$$



USA.gov is the U.S. government's official web portal to all federal, state and local government web resources and services.